Location: Lafig�re
(44.4503°N, 4.0357°E)
Time: 10:04:12
(UTC+00:00)

Tiros 1 - Pass Details

Date: 23 January 2021
Orbit: 630 x 664 km, 48.4° (Epoch: 07 March)

Event Time Altitude Azimuth Distance (km) Brightness Sun altitude
Rises 19:08:50 0° 255° (WSW) 2,922 11.8 -26.2°
Reaches altitude 10° 19:11:10 10° 258° (WSW) 2,012 10.6 -26.6°
Enters shadow 19:15:04 59° 287° (WNW) 731 7.6 -27.3°
